Weather History for LTCE - January, 2013

Change the Weather History Date:

Thursday, January 24, 2013

  Actual Average Record
Temperature  
Mean Temperature 27 °F -  
Max Temperature 34 °F 28 °F 34 °F (2013)
Min Temperature 20 °F 13 °F -20 °F (2002)
Degree Days  
Heating Degree Days 38    
Moisture  
Dew Point 25 °F    
Average Humidity 90    
Maximum Humidity 100    
Minimum Humidity 75    
Precipitation  
Precipitation 0.00 in 0.03 in - ()
Sea Level Pressure  
Sea Level Pressure 30.06 in    
Wind  
Wind Speed 4 mph ()    
Max Wind Speed 14 mph    
Max Gust Speed -    
Visibility 6.1 miles    
Events Snow    
Averages and records for this station are not official NWS values.
T = Trace of Precipitation, MM = Missing Value Source: Averaged Metar Reports

Daily Weather History Graph

Daily Weather History Graph

Search for Another Location

Airport or City:

Trip Planner

Search our weather history database for the weather conditions in past years. The results will help you decide how hot, cold, wet, or windy it might be!

Date:

Astronomy

Jan. 24, 2013 Rise Set
Actual Time 6:30 AM EET 4:24 PM EET
Civil Twilight 6:01 AM EET 4:54 PM EET
Nautical Twilight 5:28 AM EET 5:26 PM EET
Astronomical Twilight 4:56 AM EET 5:59 PM EET
Moon 2:07 PM EET (1/24) 4:11 AM EET (1/24)
Length of Visible Light 10h 52m
Length of Day
9h 54m
Waxing Gibbous, 93% of the Moon is Illuminated
Jan 24
Waxing Gibbous
Jan 27
Full
Feb 3
Last Quarter
Feb 10
New
Feb 17
First Quarter

Hourly Weather History & Observations

Time (EET) Temp. Windchill Dew Point Humidity Pressure Visibility Wind Dir Wind Speed Gust Speed Precip Events Conditions
12:20 AM 23.0 °F 14.7 °F 21.2 °F 93% 30.04 in 6.2 mi West 6.9 mph - N/A   Scattered Clouds
12:50 AM 26.6 °F 22.6 °F 26.6 °F 100% 30.04 in 6.2 mi SE 3.5 mph - N/A   Mostly Cloudy
1:20 AM 24.8 °F - 24.8 °F 100% 30.04 in 6.2 mi Calm Calm - N/A   Mostly Cloudy
1:50 AM 24.8 °F - 23.0 °F 93% 30.04 in 6.2 mi Variable 1.2 mph - N/A   Mostly Cloudy
2:00 AM 24 °F - 24 °F 100%  in 12 mi WNW 1.2 mph - -   Partly Cloudy
2:20 AM 21.2 °F 13.6 °F 19.4 °F 93% 30.04 in 6.2 mi NNW 5.8 mph - N/A   Mostly Cloudy
2:50 AM 24.8 °F 17.9 °F 23.0 °F 93% 30.04 in 6.2 mi West 5.8 mph - N/A   Mostly Cloudy
3:20 AM 23.0 °F - 23.0 °F 100% 30.04 in 6.2 mi Variable 2.3 mph - N/A   Mostly Cloudy
3:50 AM 26.6 °F 20.0 °F 24.8 °F 93% 30.04 in 6.2 mi SW 5.8 mph - N/A   Mostly Cloudy
4:20 AM 26.6 °F 18.2 °F 24.8 °F 93% 30.04 in 6.2 mi West 8.1 mph - N/A   Mostly Cloudy
4:50 AM 28.4 °F 24.6 °F 24.8 °F 86% 30.04 in 6.2 mi SW 3.5 mph - N/A   Mostly Cloudy
5:20 AM 24.8 °F 20.5 °F 23.0 °F 93% 30.04 in 6.2 mi SSE 3.5 mph - N/A   Mostly Cloudy
5:50 AM 21.2 °F - 21.2 °F 100% 30.04 in 6.2 mi Variable 1.2 mph - N/A   Mostly Cloudy
6:20 AM 23.0 °F - 23.0 °F 100% 30.04 in 6.2 mi Variable 1.2 mph - N/A   Mostly Cloudy
6:50 AM 21.2 °F - 21.2 °F 100% 30.06 in 6.2 mi Variable 2.3 mph - N/A   Mostly Cloudy
7:20 AM 23.0 °F - 23.0 °F 100% 30.06 in 3.7 mi Variable 1.2 mph - N/A   Mostly Cloudy
7:50 AM 21.2 °F 16.4 °F 17.6 °F 86% 30.06 in 3.7 mi South 3.5 mph - N/A   Mostly Cloudy
8:00 AM 22 °F - 21 °F 94%  in 4 mi SSE 4.6 mph - -   Mist
8:20 AM 23.0 °F 18.4 °F 19.4 °F 86% 30.06 in 3.7 mi SE 3.5 mph - N/A   Mostly Cloudy
8:50 AM 26.6 °F - 23.0 °F 86% 30.06 in 5.0 mi Variable 2.3 mph - N/A   Mostly Cloudy
9:20 AM 30.2 °F - 24.8 °F 80% 30.09 in 5.6 mi Variable 2.3 mph - N/A   Mostly Cloudy
9:50 AM 32.0 °F - 26.6 °F 80% 30.09 in 6.2 mi Variable 1.2 mph - N/A   Mostly Cloudy
10:20 AM 32.0 °F 27.5 °F 26.6 °F 80% 30.09 in 6.2 mi West 4.6 mph - N/A   Mostly Cloudy
10:50 AM 32.0 °F 25.6 °F 26.6 °F 80% 30.09 in 6.2 mi WSW 6.9 mph - N/A   Mostly Cloudy
11:20 AM 33.8 °F 24.8 °F 28.4 °F 81% 30.06 in 6.2 mi West 12.7 mph - N/A Snow Light Snow
11:50 AM 32.0 °F 22.1 °F 30.2 °F 93% 30.06 in 6.2 mi West 13.8 mph - N/A Snow Light Snow
12:20 PM 33.8 °F 24.3 °F 30.2 °F 87% 30.06 in 6.2 mi West 13.8 mph - N/A   Mostly Cloudy
12:50 PM 33.8 °F 25.3 °F 30.2 °F 87% 30.06 in 6.2 mi West 11.5 mph - N/A   Mostly Cloudy
1:20 PM 33.8 °F 25.8 °F 30.2 °F 87% 30.06 in 6.2 mi West 10.4 mph - N/A   Mostly Cloudy
1:50 PM 33.8 °F 26.4 °F 30.2 °F 87% 30.06 in 6.2 mi West 9.2 mph - N/A   Mostly Cloudy
2:00 PM 33 °F - 30 °F 82%  in 12 mi West 9.2 mph - -   Partly Cloudy
2:20 PM 33.8 °F 27.0 °F 30.2 °F 87% 30.06 in 6.2 mi West 8.1 mph - N/A   Mostly Cloudy
2:50 PM 33.8 °F 27.7 °F 30.2 °F 87% 30.06 in 6.2 mi West 6.9 mph - N/A   Mostly Cloudy
3:20 PM 33.8 °F 29.6 °F 28.4 °F 81% 30.06 in 5.6 mi West 4.6 mph - N/A   Mostly Cloudy
3:50 PM 32.0 °F 28.7 °F 28.4 °F 87% 30.06 in 5.6 mi ENE 3.5 mph - N/A   Mostly Cloudy
4:20 PM 30.2 °F - 28.4 °F 93% 30.06 in 5.0 mi ENE 2.3 mph - N/A   Mostly Cloudy
4:50 PM 28.4 °F - 28.4 °F 100% 30.06 in 4.3 mi Calm Calm - N/A   Mostly Cloudy
5:20 PM 26.6 °F - 26.6 °F 100% 30.06 in 3.7 mi Variable 1.2 mph - N/A   Mostly Cloudy
5:50 PM 26.6 °F - 26.6 °F 100% 30.06 in 5.0 mi Calm Calm - N/A   Mostly Cloudy
6:20 PM 26.6 °F 22.6 °F 26.6 °F 100% 30.06 in 5.0 mi West 3.5 mph - N/A   Mostly Cloudy
6:50 PM 30.2 °F 24.3 °F 26.6 °F 86% 30.06 in 5.6 mi West 5.8 mph - N/A   Mostly Cloudy
7:20 PM 33.8 °F 26.4 °F 26.6 °F 75% 30.06 in 6.2 mi WSW 9.2 mph - N/A   Mostly Cloudy
7:50 PM 30.2 °F 25.4 °F 26.6 °F 86% 30.06 in 6.2 mi WNW 4.6 mph - N/A   Mostly Cloudy
8:00 PM 31 °F - 27 °F 80%  in 12 mi WNW 3.5 mph - -   Partly Cloudy
8:20 PM 32.0 °F 23.6 °F 26.6 °F 80% 30.06 in 6.2 mi West 10.4 mph - N/A   Mostly Cloudy
8:50 PM 30.2 °F 21.9 °F 24.8 °F 80% 30.06 in 6.2 mi WSW 9.2 mph - N/A   Mostly Cloudy
9:20 PM 28.4 °F 19.1 °F 23.0 °F 80% 30.06 in 6.2 mi West 10.4 mph - N/A   Mostly Cloudy
9:50 PM 28.4 °F 21.2 °F 24.8 °F 86% 30.06 in 6.2 mi WNW 6.9 mph - N/A   Mostly Cloudy
10:20 PM 24.8 °F 16.1 °F 23.0 °F 93% 30.06 in 6.2 mi WNW 8.1 mph - N/A   Mostly Cloudy
10:50 PM 23.0 °F 14.7 °F 21.2 °F 93% 30.04 in 6.2 mi WNW 6.9 mph - N/A   Mostly Cloudy
11:20 PM 23.0 °F - 21.2 °F 93% 30.04 in 6.2 mi Variable 2.3 mph - N/A   Mostly Cloudy
11:50 PM 21.2 °F - 19.4 °F 93% 30.04 in 6.2 mi SE 2.3 mph - N/A   Mostly Cloudy